FW0261 Weather Reports


time (UTC)temp
F
wind
direction
speed
knots
gust
knots
rain 1hr
in
rain 24hr
in
rain mn
in
humidity
%
barometer
mb
20260507110905 71 0 0.0 0.0 0.00 0.15 0.13 61 1016.0
20260507110005 69 0 0.0 0.0 0.00 0.15 0.13 60 1016.1
20260507105405 68 0 0.0 0.9 0.00 0.15 0.13 60 1016.2
20260507104505 69 65 0.9 2.6 0.00 0.15 0.13 60 1016.3
20260507103605 73 56 0.9 2.6 0.00 0.15 0.13 51 1016.3
20260507102705 75 85 0.0 1.7 0.00 0.15 0.13 52 1016.3
20260507101826 73 90 0.0 1.7 0.00 0.15 0.13 57 1016.5
20260507100926 71 0 0.0 0.0 0.00 0.15 0.13 63 1016.4
20260507100005 69 0 0.0 0.0 0.00 0.15 0.13 65 1016.3
20260507095405 68 0 0.0 0.0 0.00 0.15 0.13 65 1016.4
20260507094505 69 169 0.0 1.7 0.00 0.15 0.13 61 1016.3
20260507093605 73 90 0.0 1.7 0.00 0.15 0.13 55 1016.3
20260507092705 74 0 0.0 0.0 0.00 0.15 0.13 61 1016.2
20260507091804 69 90 0.0 1.7 0.00 0.15 0.13 66 1016.3
20260507090904 67 77 0.0 1.7 0.00 0.15 0.13 68 1016.2
20260507090005 66 90 0.0 1.7 0.00 0.15 0.13 67 1016.2
20260507085405 65 90 0.0 1.7 0.00 0.15 0.13 68 1016.2
20260507084504 65 0 0.0 0.0 0.00 0.15 0.13 63 1016.3
20260507083625 66 0 0.0 0.0 0.00 0.15 0.13 62 1016.2
20260507082705 68 0 0.0 0.0 0.00 0.15 0.13 56 1016.2
20260507081805 73 0 0.0 0.0 0.00 0.15 0.13 52 1016.1
20260507080905 75 0 0.0 0.0 0.00 0.15 0.13 54 1016.2
20260507080025 75 0 0.0 0.9 0.00 0.15 0.13 56 1016.2
20260507075404 75 0 0.0 0.0 0.00 0.15 0.13 60 1016.1
20260507074525 75 0 0.0 0.9 0.00 0.15 0.13 60 1016.2
20260507073625 73 0 0.0 0.0 0.01 0.15 0.13 63 1016.2
20260507072704 72 0 0.0 0.0 0.01 0.15 0.13 64 1016.1
20260507071805 73 0 0.0 0.0 0.01 0.15 0.13 72 1016.1
20260507070904 69 0 0.0 0.0 0.01 0.15 0.13 93 1016.1
20260507070009 66 90 0.0 1.7 0.01 0.15 0.13 99 1016.0
20260507065404 65 90 0.0 1.7 0.01 0.15 0.13 99 1015.9
20260507064505 62 0 0.0 0.9 0.01 0.15 0.13 99 1015.8
20260507063605 57 0 0.0 0.0 0.00 0.14 0.12 99 1015.8
20260507062704 56 0 0.0 0.0 0.00 0.14 0.12 99 1015.8
20260507061825 55 0 0.0 0.0 0.00 0.14 0.12 99 1015.7
20260507060904 54 0 0.0 0.0 0.00 0.15 0.12 99 1015.8
20260507060004 54 0 0.0 0.0 0.00 0.15 0.12 99 1015.6
20260507055404 54 0 0.0 0.0 0.00 0.15 0.12 99 1015.8
20260507054504 53 0 0.0 0.0 0.00 0.15 0.12 99 1015.7
20260507053625 52 0 0.0 0.0 0.00 0.15 0.12 99 1015.6
20260507052704 51 0 0.0 0.0 0.00 0.15 0.12 99 1015.4
20260507051804 51 0 0.0 0.0 0.00 0.15 0.12 99 1015.2
20260507050904 50 0 0.0 0.0 0.00 0.15 0.12 99 1015.2
20260507050004 50 0 0.0 0.0 0.00 0.15 0.12 99 1015.3
20260507045404 49 0 0.0 0.0 0.00 0.15 0.12 99 1015.2
20260507044504 49 0 0.0 0.0 0.00 0.15 0.12 99 1015.2
20260507043625 49 0 0.0 0.0 0.00 0.15 0.12 99 1015.1
20260507042725 49 0 0.0 0.0 0.00 0.15 0.12 99 1015.0
20260507041804 49 0 0.0 0.0 0.00 0.15 0.12 99 1015.0
20260507040904 49 0 0.0 0.0 0.00 0.15 0.12 99 1014.9
20260507040004 50 0 0.0 0.0 0.01 0.15 0.12 99 1014.8
20260507035404 50 0 0.0 0.0 0.01 0.15 0.12 99 1014.7
20260507034504 50 0 0.0 0.0 0.04 0.15 0.12 99 1014.8
20260507033604 50 0 0.0 0.0 0.09 0.15 0.12 99 1014.9
20260507032704 51 0 0.0 0.0 0.12 0.15 0.12 99 1014.9
20260507031804 51 0 0.0 0.9 0.12 0.15 0.12 99 1014.8
20260507030904 51 0 0.0 0.9 0.12 0.15 0.12 99 1014.9
20260507030004 52 0 0.0 0.9 0.11 0.14 0.11 99 1014.9
20260507025425 52 0 0.0 0.9 0.11 0.14 0.11 99 1014.9
20260507024504 52 0 0.0 0.9 0.08 0.12 0.08 99 1014.9
20260507023604 53 0 0.0 0.0 0.02 0.06 0.02 99 1014.9